Location: Recife
(8.0585°S, 34.8848°W)
Time: 06:50:21
(UTC-03:00)

Vanguard 1 Rocket - Pass Details

Date: 22 April 2026
Orbit: 655 x 4212 km, 34.3° (Epoch: 13 May)

Event Time Altitude Azimuth Distance (km) Brightness Sun altitude
Rises 12:53:36 0° 212° (SSW) 3,638 10.5 58.7°
Reaches altitude 10° 12:56:20 10° 197° (SSW) 2,997 10.0 58.2°
Maximum altitude 13:02:23 25° 143° (SE) 2,760 9.8 57.0°
Drops below altitude 10° 13:11:59 10° 93° (E) 4,951 11.0 55.1°
Sets 13:18:15 0° 82° (E) 6,665 11.5 53.8°
